EW0609 Weather Reports


time (UTC)temp
C
wind
direction
speed
KPH
gust
KPH
rain 1hr
cm
rain 24hr
cm
rain mn
cm
humidity
%
barometer
mb
20260508175837 27 347 6.4 16.1 0.00 0.00 0.00 30 1011.7
20260508175337 26 312 6.4 14.5 0.00 0.00 0.00 31 1011.8
20260508174835 25 259 4.8 17.7 0.00 0.00 0.00 30 1011.7
20260508174335 26 307 9.7 17.7 0.00 0.00 0.00 31 1011.8
20260508173835 26 302 4.8 19.3 0.00 0.00 0.00 32 1011.8
20260508173336 26 286 9.7 19.3 0.00 0.00 0.00 28 1011.9
20260508172838 26 247 9.7 17.7 0.00 0.00 0.00 31 1011.8
20260508172338 26 340 8.0 17.7 0.00 0.00 0.00 31 1011.8
20260508171836 25 268 1.6 6.4 0.00 0.00 0.00 33 1011.9
20260508171720 25 4 1.6 16.1 0.00 0.00 0.00 30 1011.9
20260508171118 25 261 3.2 11.3 0.00 0.00 0.00 30 1012.0
20260508171003 25 306 6.4 16.1 0.00 0.00 0.00 32 1012.0
20260508165838 26 353 4.8 19.3 0.00 0.00 0.00 32 1012.0
20260508165336 25 10 11.3 19.3 0.00 0.00 0.00 34 1012.2
20260508164835 24 1 4.8 14.5 0.00 0.00 0.00 35 1012.3
20260508164335 24 345 3.2 14.5 0.00 0.00 0.00 34 1012.4
20260508163837 24 337 4.8 14.5 0.00 0.00 0.00 34 1012.4
20260508163335 24 254 3.2 11.3 0.00 0.00 0.00 32 1012.3
20260508162836 24 234 4.8 11.3 0.00 0.00 0.00 38 1012.3
20260508162335 23 188 4.8 11.3 0.00 0.00 0.00 37 1012.4
20260508161837 23 243 3.2 9.7 0.00 0.00 0.00 38 1012.3
20260508161336 23 323 3.2 9.7 0.00 0.00 0.00 38 1012.4
20260508160835 22 274 3.2 14.5 0.00 0.00 0.00 39 1012.4
20260508160336 22 233 3.2 14.5 0.00 0.00 0.00 41 1012.5
20260508155836 23 245 4.8 16.1 0.00 0.00 0.00 40 1012.4
20260508155336 22 272 4.8 17.7 0.00 0.00 0.00 41 1012.4
20260508154836 22 206 6.4 17.7 0.00 0.00 0.00 43 1012.5
20260508154336 21 257 8.0 19.3 0.00 0.00 0.00 44 1012.5
20260508153835 21 265 8.0 19.3 0.00 0.00 0.00 45 1012.6
20260508153334 21 199 6.4 14.5 0.00 0.00 0.00 48 1012.6
20260508152835 21 243 6.4 19.3 0.00 0.00 0.00 49 1012.6
20260508152355 20 207 9.7 17.7 0.00 0.00 0.00 51 1012.8
20260508152344 21 176 6.4 19.3 0.00 0.00 0.00 50 1012.8
20260508151504 20 271 8.0 20.9 0.00 0.00 0.00 54 1012.7
20260508150337 19 255 9.7 19.3 0.00 0.00 0.00 53 1012.8
20260508145835 20 240 9.7 19.3 0.00 0.00 0.00 55 1012.7
20260508145723 19 221 9.7 24.1 0.00 0.00 0.00 56 1012.8
20260508144836 18 238 9.7 24.1 0.00 0.00 0.00 57 1012.9
20260508144335 18 193 9.7 25.7 0.00 0.00 0.00 58 1012.8
20260508143836 18 204 8.0 25.7 0.00 0.00 0.00 60 1012.7
20260508143334 17 247 9.7 19.3 0.00 0.00 0.00 61 1012.8
20260508142834 17 224 9.7 16.1 0.00 0.00 0.00 61 1012.8
20260508142335 16 175 4.8 19.3 0.00 0.00 0.00 63 1012.8
20260508141837 16 223 6.4 19.3 0.00 0.00 0.00 64 1012.9
20260508141338 16 243 9.7 20.9 0.00 0.00 0.00 64 1012.9
20260508140837 16 245 9.7 20.9 0.00 0.00 0.00 64 1012.9
20260508140335 16 230 9.7 19.3 0.00 0.00 0.00 64 1012.7
20260508135836 16 226 8.0 20.9 0.00 0.00 0.00 66 1012.6
20260508135720 15 227 8.0 20.9 0.00 0.00 0.00 67 1012.7
20260508134835 15 206 8.0 22.5 0.00 0.00 0.00 66 1012.8
20260508134335 15 217 9.7 22.5 0.00 0.00 0.00 66 1012.9
20260508133836 15 241 8.0 19.3 0.00 0.00 0.00 67 1013.2
20260508133336 15 223 8.0 16.1 0.00 0.00 0.00 67 1013.3
20260508132836 15 200 8.0 19.3 0.00 0.00 0.00 67 1013.2
20260508132337 15 224 9.7 19.3 0.00 0.00 0.00 66 1012.9
20260508131835 15 217 9.7 19.3 0.00 0.00 0.00 66 1012.8
20260508131516 13 241 8.0 19.3 0.00 0.00 0.00 70 1012.6
20260508131510 14 227 9.7 19.3 0.00 0.00 0.00 69 1012.7
20260508131426 15 195 8.0 19.3 0.00 0.00 0.00 67 1012.6
20260508125835 13 240 8.0 22.5 0.00 0.00 0.00 70 1012.5
20260508125336 13 210 9.7 25.7 0.00 0.00 0.00 70 1012.5
20260508124835 13 209 8.0 25.7 0.00 0.00 0.00 70 1012.5
20260508124336 13 178 11.3 19.3 0.00 0.00 0.00 70 1012.5
20260508123836 13 288 8.0 17.7 0.00 0.00 0.00 70 1012.7
20260508123335 13 274 6.4 14.5 0.00 0.00 0.00 70 1012.6
20260508122835 13 224 6.4 17.7 0.00 0.00 0.00 70 1012.5
20260508122335 13 202 8.0 19.3 0.00 0.00 0.00 70 1012.4
20260508121835 13 209 8.0 19.3 0.00 0.00 0.00 70 1012.2
20260508121335 13 237 9.7 20.9 0.00 0.00 0.00 70 1012.2
20260508120836 13 210 6.4 22.5 0.00 0.00 0.00 69 1012.0
20260508120334 13 210 6.4 22.5 0.00 0.00 0.00 69 1012.0
20260508120108 13 230 9.7 20.9 0.00 0.00 0.00 69 1012.0
20260508115336 13 216 11.3 20.9 0.00 0.00 0.00 69 1012.2
20260508114835 13 244 9.7 22.5 0.00 0.00 0.00 69 1012.0
20260508114335 13 217 8.0 22.5 0.00 0.00 0.00 69 1012.0
20260508113836 13 209 11.3 24.1 0.00 0.00 0.00 69 1012.0
20260508113335 13 203 12.9 24.1 0.00 0.00 0.00 69 1012.0
20260508112835 13 238 9.7 25.7 0.00 0.00 0.00 69 1012.2
20260508112337 13 228 11.3 25.7 0.00 0.00 0.00 69 1012.2
20260508112223 13 217 9.7 22.5 0.00 0.00 0.00 69 1012.2
20260508111336 13 226 9.7 22.5 0.00 0.00 0.00 69 1012.0
20260508111224 13 221 9.7 22.5 0.00 0.00 0.00 68 1012.0
20260508110338 13 206 9.7 19.3 0.00 0.00 0.00 68 1012.0
20260508105835 13 248 8.0 19.3 0.00 0.00 0.00 68 1012.2
20260508105334 13 238 8.0 20.9 0.00 0.00 0.00 68 1012.0
20260508104836 13 221 9.7 30.6 0.00 0.00 0.00 68 1012.2
20260508104335 13 212 9.7 30.6 0.00 0.00 0.00 67 1012.2
20260508103835 13 220 9.7 25.7 0.00 0.00 0.00 67 1012.3
20260508103337 13 210 12.9 22.5 0.00 0.00 0.00 68 1012.3
20260508103217 13 254 12.9 22.5 0.00 0.00 0.00 67 1012.3
20260508102335 13 214 9.7 24.1 0.00 0.00 0.00 67 1012.5
20260508101837 13 197 9.7 24.1 0.00 0.00 0.00 67 1012.3
20260508101334 13 213 9.7 19.3 0.00 0.00 0.00 66 1012.4
20260508100836 13 219 8.0 25.7 0.00 0.00 0.00 66 1012.4
20260508100335 13 220 9.7 25.7 0.00 0.00 0.00 66 1012.4
20260508100228 13 238 9.7 24.1 0.00 0.00 0.00 66 1012.3
20260508095336 13 168 12.9 24.1 0.00 0.00 0.00 66 1012.5
20260508094835 13 219 11.3 24.1 0.00 0.00 0.00 65 1012.4
20260508094722 13 227 11.3 24.1 0.00 0.00 0.00 62 1012.4
20260508093835 13 268 9.7 20.9 0.00 0.00 0.00 62 1012.4
20260508093336 13 238 8.0 20.9 0.00 0.00 0.00 62 1012.5
20260508093229 13 204 9.7 20.9 0.00 0.00 0.00 62 1012.6
20260508092336 13 234 9.7 25.7 0.00 0.00 0.00 62 1012.5
20260508091836 13 202 11.3 25.7 0.00 0.00 0.00 62 1012.6
20260508091335 13 212 9.7 24.1 0.00 0.00 0.00 62 1012.6
20260508090838 13 207 11.3 24.1 0.00 0.00 0.00 62 1012.7
20260508090623 13 206 12.9 30.6 0.00 0.00 0.00 62 1012.7
20260508090506 13 245 11.3 24.1 0.00 0.00 0.00 62 1012.7
20260508085338 13 230 11.3 30.6 0.00 0.00 0.00 61 1012.7
20260508084838 13 190 17.7 29.0 0.00 0.00 0.00 61 1012.8
20260508084335 13 169 11.3 24.1 0.00 0.00 0.00 59 1012.7
20260508083835 13 183 9.7 20.9 0.00 0.00 0.00 59 1012.8
20260508083335 13 173 9.7 22.5 0.00 0.00 0.00 59 1012.7
20260508082836 13 180 8.0 22.5 0.00 0.00 0.00 59 1012.6
20260508082335 13 196 9.7 22.5 0.00 0.00 0.00 59 1012.7
20260508081835 13 214 6.4 22.5 0.00 0.00 0.00 58 1012.7
20260508081338 13 172 11.3 24.1 0.00 0.00 0.00 58 1012.7
20260508080834 13 200 8.0 24.1 0.00 0.00 0.00 57 1012.7
20260508080335 13 233 8.0 14.5 0.00 0.00 0.00 57 1012.8
20260508075836 13 175 6.4 11.3 0.00 0.00 0.00 56 1012.7
20260508075335 13 209 6.4 14.5 0.00 0.00 0.00 55 1012.8
20260508074836 13 233 6.4 14.5 0.00 0.00 0.00 54 1012.9
20260508074337 13 217 4.8 9.7 0.00 0.00 0.00 54 1012.8
20260508073836 13 173 4.8 8.0 0.00 0.00 0.00 53 1012.9
20260508073616 13 213 3.2 9.7 0.00 0.00 0.00 53 1013.0
20260508073504 13 206 4.8 9.7 0.00 0.00 0.00 53 1013.0
20260508072334 13 202 4.8 11.3 0.00 0.03 0.00 53 1013.0
20260508071834 13 157 4.8 11.3 0.00 0.03 0.00 52 1013.0
20260508071335 13 182 4.8 9.7 0.00 0.03 0.00 52 1013.2
20260508070835 13 210 4.8 9.7 0.00 0.03 0.00 52 1013.2
20260508070335 14 228 4.8 11.3 0.00 0.03 0.00 51 1013.2
20260508070224 14 212 6.4 11.3 0.00 0.03 0.00 51 1013.3
20260508065336 14 217 6.4 11.3 0.00 0.03 0.00 50 1013.3
20260508064835 14 189 4.8 14.5 0.00 0.03 0.00 50 1013.3
20260508064726 14 209 6.4 14.5 0.00 0.03 0.00 50 1013.3
20260508063834 15 196 6.4 14.5 0.00 0.03 0.00 49 1013.4
20260508063721 15 235 3.2 14.5 0.00 0.03 0.00 48 1013.4
20260508062837 15 175 6.4 9.7 0.00 0.03 0.00 48 1013.5
20260508062337 15 182 4.8 11.3 0.00 0.03 0.00 48 1013.4
20260508061836 15 161 6.4 14.5 0.00 0.03 0.00 47 1013.5
20260508061336 15 219 4.8 14.5 0.00 0.03 0.00 47 1013.5
20260508060834 15 169 4.8 11.3 0.00 0.03 0.00 47 1013.5
20260508060335 15 202 4.8 17.7 0.00 0.03 0.00 46 1013.5
20260508055837 16 219 6.4 17.7 0.00 0.03 0.00 46 1013.5
20260508055335 16 159 8.0 17.7 0.00 0.03 0.00 46 1013.4
20260508054836 16 154 8.0 17.7 0.00 0.03 0.00 46 1013.6
20260508054335 16 216 8.0 17.7 0.00 0.03 0.00 46 1013.5
20260508053838 16 158 6.4 17.7 0.00 0.03 0.00 45 1013.7
20260508053336 16 151 8.0 16.1 0.00 0.03 0.00 46 1013.7
20260508052835 16 159 6.4 16.1 0.00 0.03 0.00 45 1013.7
20260508052336 16 190 6.4 16.1 0.00 0.03 0.00 44 1013.8
20260508051835 16 200 8.0 17.7 0.00 0.03 0.00 44 1014.0
20260508051335 16 166 9.7 17.7 0.00 0.03 0.00 44 1014.0
20260508050834 16 186 6.4 14.5 0.00 0.03 0.00 44 1014.0
20260508050334 16 199 6.4 11.3 0.00 0.03 0.00 44 1014.0
20260508045836 16 138 6.4 11.3 0.00 0.03 0.03 43 1014.2
20260508045335 16 176 4.8 9.7 0.00 0.03 0.03 43 1014.0
20260508044834 16 186 3.2 9.7 0.00 0.03 0.03 43 1014.2
20260508044334 16 169 3.2 14.5 0.00 0.03 0.03 42 1014.2
20260508043836 16 206 4.8 14.5 0.00 0.03 0.03 42 1014.3
20260508043334 16 166 6.4 11.3 0.00 0.03 0.03 42 1014.3
20260508042835 16 148 4.8 11.3 0.00 0.03 0.03 41 1014.3
20260508042335 16 185 6.4 11.3 0.00 0.03 0.03 41 1014.3
20260508041834 16 141 6.4 11.3 0.00 0.03 0.03 40 1014.2
20260508041334 16 164 4.8 8.0 0.00 0.03 0.03 40 1014.2
20260508040837 16 162 3.2 6.4 0.00 0.03 0.03 39 1014.2
20260508040718 16 147 3.2 6.4 0.00 0.03 0.03 40 1014.2
20260508040109 17 145 3.2 6.4 0.00 0.03 0.03 38 1014.0
20260508040001 16 148 0.0 6.4 0.00 0.03 0.03 38 1014.2
20260508035221 17 155 3.2 6.4 0.00 0.03 0.03 37 1014.2
20260508034334 17 172 3.2 6.4 0.00 0.03 0.03 37 1014.2
20260508033835 17 133 1.6 6.4 0.00 0.03 0.03 36 1014.2
20260508033334 17 180 3.2 8.0 0.00 0.03 0.03 36 1014.2
20260508032834 17 176 1.6 8.0 0.00 0.03 0.03 35 1014.2
20260508032718 17 178 3.2 6.4 0.00 0.03 0.03 35 1014.0
20260508031837 17 166 1.6 6.4 0.00 0.03 0.03 35 1013.9
20260508031335 18 147 1.6 6.4 0.00 0.03 0.03 34 1013.7
20260508030834 17 162 3.2 6.4 0.00 0.03 0.03 34 1013.8
20260508030336 18 152 3.2 6.4 0.00 0.03 0.03 34 1013.8
20260508025834 17 162 3.2 6.4 0.00 0.03 0.03 35 1013.6
20260508025335 17 165 0.0 4.8 0.00 0.03 0.03 36 1013.5
20260508025223 17 147 1.6 4.8 0.00 0.03 0.03 37 1013.5
20260508024334 17 155 0.0 0.0 0.00 0.03 0.03 36 1013.3
20260508023836 17 149 0.0 0.0 0.00 0.03 0.03 36 1013.3
20260508023716 17 148 0.0 0.0 0.00 0.03 0.03 36 1013.3
20260508022834 17 158 0.0 0.0 0.00 0.03 0.03 35 1013.3
20260508022334 18 182 0.0 0.0 0.00 0.03 0.03 35 1013.3
20260508021834 18 182 0.0 3.2 0.00 0.03 0.03 35 1013.2
20260508021334 19 179 0.0 3.2 0.00 0.03 0.03 33 1013.2
20260508020837 19 196 0.0 6.4 0.00 0.03 0.03 32 1013.0
20260508020334 20 186 1.6 6.4 0.00 0.03 0.03 31 1012.9
20260508015835 20 178 1.6 4.8 0.00 0.03 0.03 30 1013.0
20260508015334 21 166 1.6 8.0 0.00 0.03 0.03 30 1012.9
20260508014834 21 162 3.2 8.0 0.00 0.03 0.03 30 1012.8
20260508014334 21 216 3.2 8.0 0.00 0.03 0.03 30 1012.9
20260508013834 21 175 3.2 9.7 0.00 0.03 0.03 29 1012.7
20260508013335 21 220 6.4 14.5 0.00 0.03 0.03 29 1012.9
20260508012836 21 209 4.8 16.1 0.00 0.03 0.03 29 1012.9
20260508012721 21 212 6.4 20.9 0.00 0.03 0.03 29 1012.9
20260508011836 21 195 9.7 20.9 0.00 0.03 0.03 29 1012.8
20260508011334 22 209 6.4 17.7 0.00 0.03 0.03 28 1012.7
20260508011224 21 197 3.2 17.7 0.00 0.03 0.03 30 1012.8
20260508010334 21 219 3.2 17.7 0.00 0.03 0.03 29 1012.7
20260508005834 22 214 6.4 9.7 0.00 0.03 0.03 31 1012.8
20260508005716 22 210 4.8 25.7 0.00 0.03 0.03 27 1012.6
20260508005021 22 212 6.4 20.9 0.00 0.03 0.03 27 1012.7
20260508005014 22 213 9.7 20.9 0.00 0.03 0.03 26 1012.7
20260508004927 22 210 6.4 25.7 0.00 0.03 0.03 30 1012.6
20260508003334 22 241 9.7 20.9 0.00 0.03 0.03 27 1012.7
20260508002834 22 180 9.7 20.9 0.00 0.03 0.03 27 1012.6
20260508002334 22 237 4.8 24.1 0.00 0.03 0.03 29 1012.6
20260508001837 23 204 11.3 24.1 0.00 0.03 0.03 26 1012.6
20260508001333 22 209 3.2 17.7 0.00 0.03 0.03 27 1012.6
20260508000836 22 197 4.8 17.7 0.00 0.03 0.03 28 1012.6
20260508000336 23 133 8.0 17.7 0.00 0.03 0.03 28 1012.6
20260507235834 23 207 11.3 17.7 0.00 0.03 0.03 27 1012.6
20260507235334 23 190 6.4 14.5 0.00 0.03 0.03 30 1012.5
20260507235220 23 220 6.4 17.7 0.00 0.03 0.03 26 1012.5
20260507234720 23 233 8.0 17.7 0.00 0.03 0.03 27 1012.5
20260507234115 23 247 9.7 22.5 0.00 0.03 0.03 28 1012.7
20260507234002 23 261 9.7 17.7 0.00 0.03 0.03 30 1012.7
20260507232834 23 247 12.9 22.5 0.00 0.03 0.03 27 1012.9
20260507232336 23 234 8.0 19.3 0.00 0.03 0.03 27 1012.9
20260507231834 23 196 6.4 14.5 0.00 0.03 0.03 27 1012.9
20260507231336 23 227 6.4 11.3 0.00 0.03 0.03 25 1012.9
20260507231226 23 251 4.8 17.7 0.00 0.03 0.03 27 1013.0
20260507230336 23 179 8.0 17.7 0.00 0.03 0.03 25 1013.0
20260507225835 23 234 8.0 19.3 0.00 0.03 0.03 26 1013.2
20260507225334 23 219 9.7 19.3 0.00 0.03 0.03 25 1013.3
20260507224834 24 154 11.3 20.9 0.00 0.03 0.03 25 1013.4
20260507224334 24 275 8.0 20.9 0.00 0.03 0.03 25 1013.4
20260507223835 24 202 8.0 22.5 0.00 0.03 0.03 24 1013.4
20260507223334 24 235 8.0 22.5 0.00 0.03 0.03 25 1013.5
20260507222834 24 271 12.9 24.1 0.00 0.03 0.03 25 1013.4
20260507222335 24 140 12.9 24.1 0.00 0.03 0.03 26 1013.5
20260507222220 24 321 4.8 14.5 0.00 0.03 0.03 26 1013.5
20260507221336 23 295 8.0 17.7 0.00 0.03 0.03 26 1013.6
20260507221218 24 186 4.8 17.7 0.00 0.03 0.03 26 1013.7
20260507220333 23 197 3.2 16.1 0.00 0.03 0.03 25 1013.7
20260507215835 23 244 4.8 16.1 0.00 0.03 0.03 26 1013.7
20260507215728 23 251 8.0 17.7 0.00 0.03 0.03 26 1013.9
20260507215213 23 212 6.4 17.7 0.00 0.03 0.03 27 1013.8
20260507214330 23 212 3.2 16.1 0.00 0.03 0.03 28 1014.0
20260507213830 23 175 8.0 16.1 0.00 0.03 0.03 27 1014.0
20260507213330 23 240 6.4 27.4 0.00 0.03 0.03 27 1014.3
20260507212831 23 224 11.3 27.4 0.00 0.03 0.03 30 1014.4
20260507212329 23 250 9.7 19.3 0.00 0.03 0.03 28 1014.3
20260507211830 23 176 8.0 16.1 0.00 0.03 0.03 27 1014.4
20260507211330 23 233 11.3 19.3 0.00 0.03 0.03 28 1014.6
20260507210830 23 212 6.4 19.3 0.00 0.03 0.03 28 1014.7
20260507210329 23 137 6.4 20.9 0.00 0.03 0.03 28 1014.7
20260507205832 23 241 11.3 20.9 0.00 0.03 0.03 31 1014.8
20260507205327 23 244 11.3 19.3 0.00 0.03 0.03 29 1015.1
20260507204830 23 252 12.9 22.5 0.00 0.03 0.03 32 1015.1
20260507204328 23 296 6.4 22.5 0.00 0.03 0.03 29 1015.2
20260507203828 23 233 6.4 25.7 0.00 0.03 0.03 30 1015.3
20260507203712 23 258 11.3 25.7 0.00 0.03 0.03 29 1015.5
20260507202826 23 200 8.0 24.1 0.00 0.03 0.03 32 1015.4
20260507202328 23 192 9.7 19.3 0.00 0.03 0.03 31 1015.4
20260507201827 22 231 6.4 17.7 0.00 0.03 0.03 38 1015.6
20260507201720 22 226 4.8 20.9 0.00 0.03 0.03 36 1015.7
20260507200825 22 245 9.7 24.1 0.00 0.03 0.03 32 1015.9
20260507200325 22 180 9.7 24.1 0.00 0.03 0.03 32 1015.9
20260507195825 22 321 6.4 24.1 0.00 0.03 0.03 35 1016.1
20260507195327 22 237 6.4 24.1 0.00 0.03 0.03 34 1016.3
20260507194825 21 278 9.7 17.7 0.00 0.03 0.03 34 1016.3
20260507194325 21 231 4.8 24.1 0.00 0.03 0.03 36 1016.4
20260507193823 22 193 6.4 24.1 0.00 0.03 0.03 35 1016.4
20260507193322 22 217 4.8 19.3 0.00 0.03 0.03 35 1016.5
20260507192917 22 200 9.7 19.3 0.00 0.03 0.03 36 1016.6
20260507192453 22 276 11.3 19.3 0.00 0.03 0.03 38 1016.7
20260507191707 21 262 11.3 24.1 0.00 0.03 0.03 36 1016.9
20260507190817 21 326 8.0 17.7 0.00 0.03 0.03 37 1017.1
20260507190319 21 258 9.7 24.1 0.00 0.03 0.03 38 1017.1
20260507185816 21 227 6.4 24.1 0.00 0.03 0.03 41 1017.2
20260507185317 20 223 11.3 24.1 0.00 0.03 0.03 42 1017.4
20260507184816 20 131 9.7 24.1 0.00 0.03 0.03 42 1017.4
20260507184317 20 217 6.4 17.7 0.00 0.03 0.03 42 1017.4
20260507183816 21 200 6.4 17.7 0.00 0.03 0.03 45 1017.6
20260507183316 20 235 8.0 22.5 0.00 0.03 0.03 45 1017.7
20260507182815 20 207 12.9 22.5 0.00 0.03 0.03 42 1018.0
20260507182315 19 244 8.0 19.3 0.00 0.03 0.03 47 1018.0
20260507181814 19 199 9.7 19.3 0.00 0.03 0.03 45 1018.2
20260507181314 18 238 9.7 19.3 0.00 0.03 0.03 46 1018.2
20260507180813 19 255 9.7 20.9 0.00 0.03 0.03 47 1018.3
20260507180312 19 195 8.0 20.9 0.00 0.03 0.03 48 1018.4